Location: Unspecified
(48.5670°N, 0.0000°E)
Time: 23:46:25
(UTC+00:00)

Transit 4A - Pass Details

Date: 03 September 2019
Orbit: 865 x 980 km, 66.8° (Epoch: 18 September)

Event Time Altitude Azimuth Distance (km) Brightness Sun altitude
Rises 19:48:24 0° 304° (WNW) 3,674 13.0 -11.7°
Reaches altitude 10° 19:52:26 10° 328° (NNW) 2,710 11.3 -12.3°
Maximum altitude 19:55:43 14° 360° (N) 2,388 10.4 -12.8°
Drops below altitude 10° 19:58:59 10° 31° (NNE) 2,674 10.3 -13.3°
Sets 20:02:55 0° 56° (NE) 3,593 10.7 -13.9°
